Powrót do katalogu

ORBCOMM FM 6

AktywnyŁącznośćLEO
NORAD 25118·PAYLOAD·🇺🇸 United States

Wystrzelony Dec 23, 1997 z Cape Canaveral Space Force Station

Loading…

Następne Przeloty (najbliższe 24 godziny)

TLE

ŚwieżeSource: Space-Track

Epoka: Sep 14, 2026, 05:26 UTC

1 25118U 97084G   26257.22646311  .00000854  00000-0  26813-3 0  9992
2 25118  45.0150 344.0073 0001778 242.1852 140.6384 14.47745461507294

Śledź ORBCOMM FM 6 w czasie rzeczywistym z AllMySat

Download on the App Store